C/2019 K4 ( Ye )

Japanese version
Home page
Updated on September 24, 2019

---------------------------------------------------------------------

* Profile

Discovery Date May 30, 2019
Magnitude 17.1 mag
Discoverer Quan-zhi Ye (Palomar)

* Pictures

* Orbital Elements

Epoch 2019 June 6.0 TT = JDT 2458640.5
T 2019 June 16.43109 TT                                 Williams
q   2.2595212            (2000.0)            P               Q
z  +0.0003336      Peri.  139.77679     +0.76303940     +0.64634599
 +/-0.0000116      Node   180.16532     -0.08933032     +0.10972088
e   0.9992461      Incl.  105.30688     +0.64014918     -0.75511469
From 175 observations 2019 Apr. 24-Aug. 21, mean residual 0".5.

* Finding Charts

* Magnitudes Graph

        m1 = 11.7 + 5 log d + 10.0 log r

---------------------------------------------------------------------

The orbital elements are published on M.P.E.C. 2019-Q135.
The charts are made with StellaNavigator Ver.10 (AstroArts).
The magnitudes graphs are made with Comet for Windows.

---------------------------------------------------------------------

Copyright(C) Seiichi Yoshida (comet@aerith.net). All rights reserved.